This is the latest recevied weather packets stored in our database for station/object W1HS. If no packets are shown the sender has not sent any weather packets the latest 10 day(s).
| Time | Temp. | Humidity | Pressure | Rain* | Wind** | Luminosity | Snow |
|---|---|---|---|---|---|---|---|
| 1777849522 | 8.89° C | 44% | 988 hPa | 0 mm | - | 33 W/m² | - |
| 1777848927 | 8.89° C | 45% | 987.8 hPa | 0 mm | - | 118 W/m² | - |
| 1777848320 | 8.89° C | 43% | 987.9 hPa | 0 mm | - | 42 W/m² | - |
| 1777847718 | 9.44° C | 43% | 987.9 hPa | 0 mm | - | 225 W/m² | - |
| 1777847120 | 9.44° C | 44% | 987.9 hPa | 0 mm | - | 290 W/m² | - |
| 1777846519 | 9.44° C | 46% | 987.8 hPa | 0 mm | - | 362 W/m² | - |
| 1777845922 | 8.89° C | 47% | 987.8 hPa | 0 mm | - | 139 W/m² | - |
| 1777845318 | 8.89° C | 45% | 987.7 hPa | 0 mm | - | 149 W/m² | - |
| 1777844719 | 8.89° C | 45% | 987.6 hPa | 0 mm | - | 109 W/m² | - |
| 1777844118 | 8.33° C | 48% | 987.6 hPa | 0 mm | - | 162 W/m² | - |
| 1777843522 | 8.33° C | 48% | 987.6 hPa | 0 mm | - | 127 W/m² | - |
| 1777842924 | 8.33° C | 48% | 987.6 hPa | 0 mm | - | 166 W/m² | - |
| 1777842324 | 8.33° C | 47% | 987.5 hPa | 0 mm | - | 151 W/m² | - |
| 1777841718 | 8.89° C | 46% | 987.6 hPa | 0 mm | - | 251 W/m² | - |
| 1777841118 | 8.33° C | 48% | 987.6 hPa | 0 mm | - | 290 W/m² | - |
| 1777840520 | 8.33° C | 47% | 987.6 hPa | 0 mm | - | 193 W/m² | - |
| 1777839922 | 8.89° C | 45% | 987.5 hPa | 0 mm | - | 220 W/m² | - |
| 1777839320 | 8.89° C | 45% | 987.4 hPa | 0 mm | - | 248 W/m² | - |
| 1777838718 | 8.89° C | 46% | 987.4 hPa | 0 mm | - | 282 W/m² | - |
| 1777838120 | 8.89° C | 47% | 987.5 hPa | 0 mm | - | 243 W/m² | - |
| 1777837520 | 8.89° C | 48% | 987.6 hPa | 0 mm | - | 427 W/m² | - |
| 1777836920 | 8.33° C | 47% | 987.6 hPa | 0 mm | - | 371 W/m² | - |
| 1777836322 | 8.33° C | 46% | 987.6 hPa | 0 mm | - | 279 W/m² | - |
| 1777835720 | 8.33° C | 45% | 987.6 hPa | 0 mm | - | 253 W/m² | - |
| 1777835122 | 8.33° C | 45% | 987.6 hPa | 0 mm | - | 385 W/m² | - |
* Rain latest hour (hover to see other rain measurements)
** Current wind speed in m/s (hover to see current wind gust speed)